Skip Page Navigation
NASA JPL Caltech
NASA Logo - Jet Propulsion Laboratory + View the NASA Portal
+ Center for Near-Earth Object Studies
JPL Home Earth Solar System Stars & Galaxies Technology
JPL Solar System Dynamics
BODIES ORBITS EPHEMERIDES TOOLS PHYSICAL DATA DISCOVERY FAQ SITE MAP
IMPORTANT: The SSD Announcement email list is now available. Major changes are coming in the near future, including possible hostname and/or URL changes. To be notified of such changes, subscribe to this email list.

Please visit this page for more details.


JPL Small-Body Database Browser
Search: [ help ]  
27414 (2000 EY139)
Classification: Main-belt Asteroid          SPK-ID: 2027414
Ephemeris | Orbit Diagram | Orbital Elements | Mission Design | Physical Parameters | Discovery Circumstances | Close-Approach Data ]

[ show orbit diagram ]
Orbital Elements at Epoch 2458600.5 (2019-Apr-27.0) TDB
Reference: JPL 23 (heliocentric ecliptic J2000)
 Element Value Uncertainty (1-sigma)   Units 
e .1012943047427863 4.6289e-08  
a 2.809188702551621 1.4334e-08 au
q 2.524633886035364 1.348e-07 au
i 10.15448570312821 4.4765e-06 deg
node 92.5886520795635 2.7959e-05 deg
peri 156.7756005776346 3.6203e-05 deg
M 328.6208013375135 2.306e-05 deg
tp 2458750.402592760367
(2019-Sep-23.90259276)
0.00011017 TDB
period 1719.767734484779
4.71
1.3163e-05
3.604e-08
d
yr
n .2093305931849289 1.6022e-09 deg/d
Q 3.093743519067877 1.5786e-08 au
  Orbit Determination Parameters
   # obs. used (total)      1343  
   data-arc span      19023 days (52.08 yr)  
   first obs. used      1967-04-11  
   last obs. used      2019-05-11  
   planetary ephem.      DE431  
   SB-pert. ephem.      SB431-N16  
   condition code      0  
   norm. resid. RMS      .50123  
   source      ORB  
   producer      Otto Matic  
   solution date      2019-May-30 03:27:49  

Additional Information
 Earth MOID = 1.51317 au 
 Jupiter MOID = 1.96453 au 
 T_jup = 3.291 
[ show covariance matrix ]

Ephemeris | Orbit Diagram | Orbital Elements | Mission Design | Physical Parameters | Discovery Circumstances | Close-Approach Data ]

Physical Parameter Table
Parameter Symbol Value Units Sigma Reference Notes
absolute magnitude H 13.5   n/a MPO400278  
diameter diameter 5.002 km 0.139 urn:nasa:pds:neowise_diameters_albedos::2.0[mainbelt] (http://adsabs.harvard.edu/abs/2011ApJ...741...68M)  
geometric albedo albedo 0.536   0.098 urn:nasa:pds:neowise_diameters_albedos::2.0[mainbelt] (http://adsabs.harvard.edu/abs/2011ApJ...741...68M)  

27414 (2000 EY139)          Discovered 2000-Mar-12 by CSS at Catalina
Reference: 20010804/Numbers.arcLast Updated: 2004-04-19

[ show close-approach data ]
Alternate Designations
 2000 EY139 = 1967 GH1 = 1991 KM1 
Ephemeris | Orbit Diagram | Orbital Elements | Mission Design | Physical Parameters | Discovery Circumstances | Close-Approach Data ]
ABOUT SSD CREDITS/AWARDS PRIVACY/COPYRIGHT GLOSSARY LINKS
FirstGov 2019-Dec-09 11:16 UT
(server date/time)  
NASA Home Page
Site Manager:   Ryan S. Park
Webmaster  Alan B. Chamberlin